owner,sensor,date,latitude,longitude,vertical_datum,wind_speed,wind_to_direction,wind_speed_of_gust,qcFlag 
LOOP,urn:ioos:station:wmo:lopl1:1,2019-07-01T00:45:00Z,28.8850,-90.0250,10.0,1.5,-9999.0,2.6,'11111222,11111222,11111222' 
LOOP,urn:ioos:station:wmo:lopl1:1,2019-07-01T01:45:00Z,28.8850,-90.0250,10.0,3.1,-9999.0,4.6,'11111222,11111222,11111222' 
LOOP,urn:ioos:station:wmo:lopl1:1,2019-07-01T02:45:00Z,28.8850,-90.0250,10.0,2.1,-9999.0,2.6,'11111222,11111222,11111222' 
LOOP,urn:ioos:station:wmo:lopl1:1,2019-07-01T03:45:00Z,28.8850,-90.0250,10.0,2.1,-9999.0,2.6,'11111222,11111222,11111222' 
LOOP,urn:ioos:station:wmo:lopl1:1,2019-07-01T04:45:00Z,28.8850,-90.0250,10.0,2.6,180.0,3.6,'11111222,11111222,11111222' 
LOOP,urn:ioos:station:wmo:lopl1:1,2019-07-01T05:45:00Z,28.8850,-90.0250,10.0,3.1,-9999.0,4.6,'11111222,11111222,11111222' 
LOOP,urn:ioos:station:wmo:lopl1:1,2019-07-01T06:45:00Z,28.8850,-90.0250,10.0,3.6,-9999.0,5.1,'11111222,11111222,11111222' 
LOOP,urn:ioos:station:wmo:lopl1:1,2019-07-01T07:50:00Z,28.8850,-90.0250,10.0,2.6,-9999.0,3.6,'11111222,11111222,11111222' 
LOOP,urn:ioos:station:wmo:lopl1:1,2019-07-01T08:50:00Z,28.8850,-90.0250,10.0,1.0,-9999.0,2.1,'11111222,11111222,11111222' 
LOOP,urn:ioos:station:wmo:lopl1:1,2019-07-01T09:50:00Z,28.8850,-90.0250,10.0,1.0,140.0,1.0,'11111222,11111222,11111222' 
LOOP,urn:ioos:station:wmo:lopl1:1,2019-07-01T10:50:00Z,28.8850,-90.0250,10.0,0.5,100.0,0.5,'11111222,11111222,11111222' 
LOOP,urn:ioos:station:wmo:lopl1:1,2019-07-01T11:50:00Z,28.8850,-90.0250,10.0,1.5,30.0,2.1,'11111222,11111222,11111222' 
LOOP,urn:ioos:station:wmo:lopl1:1,2019-07-01T12:50:00Z,28.8850,-90.0250,10.0,1.5,30.0,2.1,'11111222,11111222,11111222' 
LOOP,urn:ioos:station:wmo:lopl1:1,2019-07-01T13:50:00Z,28.8850,-90.0250,10.0,2.6,30.0,3.1,'11111222,11111222,11111222' 
LOOP,urn:ioos:station:wmo:lopl1:1,2019-07-01T14:50:00Z,28.8850,-90.0250,10.0,0.6,111.0,0.9,'11111222,11111222,11111222' 
LOOP,urn:ioos:station:wmo:lopl1:1,2019-07-01T15:50:00Z,28.8850,-90.0250,10.0,2.6,120.0,3.1,'11111222,11111222,11111222' 
LOOP,urn:ioos:station:wmo:lopl1:1,2019-07-01T16:50:00Z,28.8850,-90.0250,10.0,2.1,110.0,2.6,'11111222,11111222,11111222' 
LOOP,urn:ioos:station:wmo:lopl1:1,2019-07-01T17:55:00Z,28.8850,-90.0250,10.0,3.1,160.0,4.1,'11111222,11111222,11111222' 
LOOP,urn:ioos:station:wmo:lopl1:1,2019-07-01T18:55:00Z,28.8850,-90.0250,10.0,1.5,130.0,2.1,'11111222,11111222,11111222' 
LOOP,urn:ioos:station:wmo:lopl1:1,2019-07-01T20:00:00Z,28.8850,-90.0250,10.0,6.7,153.0,7.9,'11111222,11111222,11111222' 
LOOP,urn:ioos:station:wmo:lopl1:1,2019-07-01T20:10:00Z,28.8850,-90.0250,10.0,5.1,150.0,6.2,'11111222,11111222,11111222' 
LOOP,urn:ioos:station:wmo:lopl1:1,2019-07-01T21:10:00Z,28.8850,-90.0250,10.0,4.1,160.0,4.6,'11111222,11111222,11111222' 
LOOP,urn:ioos:station:wmo:lopl1:1,2019-07-01T22:10:00Z,28.8850,-90.0250,10.0,5.7,170.0,6.7,'11111222,11111222,11111222' 
LOOP,urn:ioos:station:wmo:lopl1:1,2019-07-01T23:10:00Z,28.8850,-90.0250,10.0,6.7,170.0,7.7,'11111222,11111222,11111222' 
LOOP,urn:ioos:station:wmo:lopl1:1,2019-07-02T00:15:00Z,28.8850,-90.0250,10.0,4.6,-9999.0,6.7,'11111222,11111222,11111222' 
LOOP,urn:ioos:station:wmo:lopl1:1,2019-07-02T01:15:00Z,28.8850,-90.0250,10.0,5.1,-9999.0,6.2,'11111222,11111222,11111222' 
LOOP,urn:ioos:station:wmo:lopl1:1,2019-07-02T02:15:00Z,28.8850,-90.0250,10.0,3.6,-9999.0,5.1,'11111222,11111222,11111222' 
LOOP,urn:ioos:station:wmo:lopl1:1,2019-07-02T03:15:00Z,28.8850,-90.0250,10.0,4.1,-9999.0,5.1,'11111222,11111222,11111222' 
LOOP,urn:ioos:station:wmo:lopl1:1,2019-07-02T04:15:00Z,28.8850,-90.0250,10.0,4.1,-9999.0,5.1,'11111222,11111222,11111222' 
LOOP,urn:ioos:station:wmo:lopl1:1,2019-07-02T05:15:00Z,28.8850,-90.0250,10.0,3.6,-9999.0,4.1,'11111222,11111222,11111222' 
LOOP,urn:ioos:station:wmo:lopl1:1,2019-07-02T06:15:00Z,28.8850,-90.0250,10.0,4.1,-9999.0,4.6,'11111222,11111222,11111222' 
LOOP,urn:ioos:station:wmo:lopl1:1,2019-07-02T07:15:00Z,28.8850,-90.0250,10.0,4.1,-9999.0,5.1,'11111222,11111222,11111222' 
LOOP,urn:ioos:station:wmo:lopl1:1,2019-07-02T08:15:00Z,28.8850,-90.0250,10.0,6.2,-9999.0,6.7,'11111222,11111222,11111222' 
LOOP,urn:ioos:station:wmo:lopl1:1,2019-07-02T09:16:00Z,28.8850,-90.0250,10.0,6.2,-9999.0,7.2,'11111222,11111222,11111222' 
LOOP,urn:ioos:station:wmo:lopl1:1,2019-07-02T10:21:00Z,28.8850,-90.0250,10.0,4.1,-9999.0,5.7,'11111222,11111222,11111222' 
LOOP,urn:ioos:station:wmo:lopl1:1,2019-07-02T11:21:00Z,28.8850,-90.0250,10.0,2.1,-9999.0,3.6,'11111222,11111222,11111222' 
LOOP,urn:ioos:station:wmo:lopl1:1,2019-07-02T12:21:00Z,28.8850,-90.0250,10.0,2.1,290.0,2.6,'11111222,11111222,11111222' 
LOOP,urn:ioos:station:wmo:lopl1:1,2019-07-02T13:21:00Z,28.8850,-90.0250,10.0,1.0,320.0,2.1,'11111222,11111222,11111222' 
LOOP,urn:ioos:station:wmo:lopl1:1,2019-07-02T14:21:00Z,28.8850,-90.0250,10.0,0.5,100.0,1.0,'11111222,11111222,11111222' 
LOOP,urn:ioos:station:wmo:lopl1:1,2019-07-02T15:21:00Z,28.8850,-90.0250,10.0,2.1,70.0,2.6,'11111222,11111222,11111222' 
LOOP,urn:ioos:station:wmo:lopl1:1,2019-07-02T16:26:00Z,28.8850,-90.0250,10.0,2.6,110.0,3.6,'11111222,11111222,11111222' 
LOOP,urn:ioos:station:wmo:lopl1:1,2019-07-02T17:26:00Z,28.8850,-90.0250,10.0,3.1,100.0,3.6,'11111222,11111222,11111222' 
LOOP,urn:ioos:station:wmo:lopl1:1,2019-07-02T18:26:00Z,28.8850,-90.0250,10.0,4.1,290.0,6.2,'11111222,11111222,11111222' 
LOOP,urn:ioos:station:wmo:lopl1:1,2019-07-02T19:26:00Z,28.8850,-90.0250,10.0,3.6,350.0,5.7,'11111222,11111222,11111222' 
LOOP,urn:ioos:station:wmo:lopl1:1,2019-07-02T20:26:00Z,28.8850,-90.0250,10.0,1.0,140.0,1.5,'11111222,11111222,11111222' 
LOOP,urn:ioos:station:wmo:lopl1:1,2019-07-02T21:26:00Z,28.8850,-90.0250,10.0,0.0,-9999.0,1.0,'11111222,11111222,11111222' 
LOOP,urn:ioos:station:wmo:lopl1:1,2019-07-02T22:26:00Z,28.8850,-90.0250,10.0,1.5,-9999.0,2.1,'11111222,11111222,11111222' 
LOOP,urn:ioos:station:wmo:lopl1:1,2019-07-02T23:26:00Z,28.8850,-90.0250,10.0,4.6,-9999.0,5.7,'11111222,11111222,11111222' 
LOOP,urn:ioos:station:wmo:lopl1:1,2019-07-03T00:26:00Z,28.8850,-90.0250,10.0,5.7,270.0,7.2,'11111222,11111222,11111222' 
LOOP,urn:ioos:station:wmo:lopl1:1,2019-07-03T01:26:00Z,28.8850,-90.0250,10.0,2.6,-9999.0,4.6,'11111222,11111222,11111222' 
LOOP,urn:ioos:station:wmo:lopl1:1,2019-07-03T02:31:00Z,28.8850,-90.0250,10.0,3.1,290.0,4.6,'11111222,11111222,11111222' 
LOOP,urn:ioos:station:wmo:lopl1:1,2019-07-03T03:31:00Z,28.8850,-90.0250,10.0,2.6,270.0,4.1,'11111222,11111222,11111222' 
LOOP,urn:ioos:station:wmo:lopl1:1,2019-07-03T04:31:00Z,28.8850,-90.0250,10.0,2.6,-9999.0,3.1,'11111222,11111222,11111222' 
LOOP,urn:ioos:station:wmo:lopl1:1,2019-07-03T05:31:00Z,28.8850,-90.0250,10.0,2.1,290.0,2.6,'11111222,11111222,11111222' 
LOOP,urn:ioos:station:wmo:lopl1:1,2019-07-03T06:31:00Z,28.8850,-90.0250,10.0,3.1,150.0,3.6,'11111222,11111222,11111222' 
LOOP,urn:ioos:station:wmo:lopl1:1,2019-07-03T07:31:00Z,28.8850,-90.0250,10.0,4.1,-9999.0,4.6,'11111222,11111222,11111222' 
LOOP,urn:ioos:station:wmo:lopl1:1,2019-07-03T08:31:00Z,28.8850,-90.0250,10.0,4.1,-9999.0,4.6,'11111222,11111222,11111222' 
LOOP,urn:ioos:station:wmo:lopl1:1,2019-07-03T09:31:00Z,28.8850,-90.0250,10.0,2.1,-9999.0,3.6,'11111222,11111222,11111222' 
LOOP,urn:ioos:station:wmo:lopl1:1,2019-07-03T10:36:00Z,28.8850,-90.0250,10.0,2.1,290.0,2.6,'11111222,11111222,11111222' 
LOOP,urn:ioos:station:wmo:lopl1:1,2019-07-03T11:36:00Z,28.8850,-90.0250,10.0,2.1,310.0,3.1,'11111222,11111222,11111222' 
LOOP,urn:ioos:station:wmo:lopl1:1,2019-07-03T12:36:00Z,28.8850,-90.0250,10.0,1.0,360.0,2.1,'11111222,11144222,11111222' 
LOOP,urn:ioos:station:wmo:lopl1:1,2019-07-03T13:36:00Z,28.8850,-90.0250,10.0,1.0,340.0,1.5,'11111222,11111222,11111222' 
LOOP,urn:ioos:station:wmo:lopl1:1,2019-07-03T14:36:00Z,28.8850,-90.0250,10.0,3.1,50.0,4.1,'11111222,11111222,11111222' 
LOOP,urn:ioos:station:wmo:lopl1:1,2019-07-03T15:36:00Z,28.8850,-90.0250,10.0,3.1,74.0,3.7,'11111222,11111222,11111222' 
LOOP,urn:ioos:station:wmo:lopl1:1,2019-07-03T16:36:00Z,28.8850,-90.0250,10.0,3.1,120.0,3.6,'11111222,11111222,11111222' 
LOOP,urn:ioos:station:wmo:lopl1:1,2019-07-03T17:41:00Z,28.8850,-90.0250,10.0,3.1,130.0,3.6,'11111222,11111222,11111222' 
LOOP,urn:ioos:station:wmo:lopl1:1,2019-07-03T18:41:00Z,28.8850,-90.0250,10.0,3.6,150.0,4.6,'11111222,11111222,11111222' 
LOOP,urn:ioos:station:wmo:lopl1:1,2019-07-03T19:56:00Z,28.8850,-90.0250,10.0,3.6,160.0,4.1,'11111222,11111222,11111222' 
LOOP,urn:ioos:station:wmo:lopl1:1,2019-07-03T20:56:00Z,28.8850,-90.0250,10.0,3.1,180.0,4.1,'11111222,11111222,11111222' 
LOOP,urn:ioos:station:wmo:lopl1:1,2019-07-03T21:56:00Z,28.8850,-90.0250,10.0,4.1,-9999.0,5.1,'11111222,11111222,11111222' 
LOOP,urn:ioos:station:wmo:lopl1:1,2019-07-03T22:56:00Z,28.8850,-90.0250,10.0,3.6,-9999.0,5.1,'11111222,11111222,11111222' 
LOOP,urn:ioos:station:wmo:lopl1:1,2019-07-03T23:56:00Z,28.8850,-90.0250,10.0,4.1,-9999.0,5.7,'11111222,11111222,11111222' 
LOOP,urn:ioos:station:wmo:lopl1:1,2019-07-04T00:56:00Z,28.8850,-90.0250,10.0,3.6,-9999.0,4.1,'11111222,11111222,11111222' 
LOOP,urn:ioos:station:wmo:lopl1:1,2019-07-04T02:01:00Z,28.8850,-90.0250,10.0,3.6,-9999.0,4.6,'11111222,11111222,11111222' 
LOOP,urn:ioos:station:wmo:lopl1:1,2019-07-04T03:01:00Z,28.8850,-90.0250,10.0,2.6,-9999.0,3.6,'11111222,11111222,11111222' 
LOOP,urn:ioos:station:wmo:lopl1:1,2019-07-04T04:01:00Z,28.8850,-90.0250,10.0,2.1,280.0,3.1,'11111222,11111222,11111222' 
LOOP,urn:ioos:station:wmo:lopl1:1,2019-07-04T05:01:00Z,28.8850,-90.0250,10.0,2.6,290.0,3.1,'11111222,11111222,11111222' 
LOOP,urn:ioos:station:wmo:lopl1:1,2019-07-04T06:01:00Z,28.8850,-90.0250,10.0,2.1,310.0,2.6,'11111222,11111222,11111222' 
LOOP,urn:ioos:station:wmo:lopl1:1,2019-07-04T07:01:00Z,28.8850,-90.0250,10.0,2.1,310.0,2.6,'11111222,11111222,11111222' 
LOOP,urn:ioos:station:wmo:lopl1:1,2019-07-04T08:01:00Z,28.8850,-90.0250,10.0,2.1,290.0,2.6,'11111222,11111222,11111222' 
LOOP,urn:ioos:station:wmo:lopl1:1,2019-07-04T09:01:00Z,28.8850,-90.0250,10.0,1.0,-9999.0,2.1,'11111222,11111222,11111222' 
LOOP,urn:ioos:station:wmo:lopl1:1,2019-07-04T10:11:00Z,28.8850,-90.0250,10.0,2.6,270.0,3.1,'11111222,11111222,11111222' 
LOOP,urn:ioos:station:wmo:lopl1:1,2019-07-04T11:11:00Z,28.8850,-90.0250,10.0,2.6,300.0,3.6,'11111222,11111222,11111222' 
LOOP,urn:ioos:station:wmo:lopl1:1,2019-07-04T12:11:00Z,28.8850,-90.0250,10.0,2.1,300.0,2.1,'11111222,11111222,11111222' 
LOOP,urn:ioos:station:wmo:lopl1:1,2019-07-04T13:11:00Z,28.8850,-90.0250,10.0,2.1,310.0,2.6,'11111222,11111222,11111222' 
LOOP,urn:ioos:station:wmo:lopl1:1,2019-07-04T14:11:00Z,28.8850,-90.0250,10.0,1.0,300.0,2.1,'11111222,11111222,11111222' 
LOOP,urn:ioos:station:wmo:lopl1:1,2019-07-04T15:11:00Z,28.8850,-90.0250,10.0,0.5,30.0,1.0,'11111222,11111222,11111222' 
LOOP,urn:ioos:station:wmo:lopl1:1,2019-07-04T16:11:00Z,28.8850,-90.0250,10.0,0.0,-9999.0,1.0,'11111222,11111222,11111222' 
LOOP,urn:ioos:station:wmo:lopl1:1,2019-07-04T17:11:00Z,28.8850,-90.0250,10.0,1.0,-9999.0,2.1,'11111222,11111222,11111222' 
LOOP,urn:ioos:station:wmo:lopl1:1,2019-07-04T18:11:00Z,28.8850,-90.0250,10.0,0.0,-9999.0,1.0,'11111222,11111222,11111222' 
LOOP,urn:ioos:station:wmo:lopl1:1,2019-07-04T19:11:00Z,28.8850,-90.0250,10.0,1.0,140.0,1.5,'11111222,11111222,11111222' 
LOOP,urn:ioos:station:wmo:lopl1:1,2019-07-04T20:11:00Z,28.8850,-90.0250,10.0,0.5,130.0,1.0,'11111222,11111222,11111222' 
LOOP,urn:ioos:station:wmo:lopl1:1,2019-07-04T21:11:00Z,28.8850,-90.0250,10.0,1.5,150.0,2.1,'11111222,11111222,11111222' 
LOOP,urn:ioos:station:wmo:lopl1:1,2019-07-04T22:11:00Z,28.8850,-90.0250,10.0,1.0,150.0,1.5,'11111222,11111222,11111222' 
LOOP,urn:ioos:station:wmo:lopl1:1,2019-07-04T23:26:00Z,28.8850,-90.0250,10.0,1.0,300.0,2.1,'11111222,11111222,11111222' 
LOOP,urn:ioos:station:wmo:lopl1:1,2019-07-05T00:26:00Z,28.8850,-90.0250,10.0,2.1,290.0,3.1,'11111222,11111222,11111222' 
LOOP,urn:ioos:station:wmo:lopl1:1,2019-07-05T01:41:00Z,28.8850,-90.0250,10.0,1.0,280.0,1.5,'11111222,11111222,11111222' 
LOOP,urn:ioos:station:wmo:lopl1:1,2019-07-05T02:41:00Z,28.8850,-90.0250,10.0,1.5,310.0,3.1,'11111222,11111222,11111222' 
LOOP,urn:ioos:station:wmo:lopl1:1,2019-07-05T03:46:00Z,28.8850,-90.0250,10.0,1.5,280.0,3.1,'11111222,11111222,11111222' 
LOOP,urn:ioos:station:wmo:lopl1:1,2019-07-05T04:46:00Z,28.8850,-90.0250,10.0,2.6,360.0,4.1,'11111222,11144222,11111222' 
LOOP,urn:ioos:station:wmo:lopl1:1,2019-07-05T05:46:00Z,28.8850,-90.0250,10.0,3.1,330.0,4.6,'11111222,11111222,11111222' 
LOOP,urn:ioos:station:wmo:lopl1:1,2019-07-05T06:46:00Z,28.8850,-90.0250,10.0,2.6,310.0,4.1,'11111222,11111222,11111222' 
LOOP,urn:ioos:station:wmo:lopl1:1,2019-07-05T07:46:00Z,28.8850,-90.0250,10.0,2.1,340.0,3.1,'11111222,11111222,11111222' 
LOOP,urn:ioos:station:wmo:lopl1:1,2019-07-05T08:46:00Z,28.8850,-90.0250,10.0,2.1,350.0,3.6,'11111222,11111222,11111222' 
LOOP,urn:ioos:station:wmo:lopl1:1,2019-07-05T09:46:00Z,28.8850,-90.0250,10.0,2.6,310.0,4.1,'11111222,11111222,11111222' 
LOOP,urn:ioos:station:wmo:lopl1:1,2019-07-05T10:46:00Z,28.8850,-90.0250,10.0,3.6,340.0,5.1,'11111222,11111222,11111222' 
LOOP,urn:ioos:station:wmo:lopl1:1,2019-07-05T11:46:00Z,28.8850,-90.0250,10.0,3.6,340.0,5.1,'11111222,11111222,11111222' 
LOOP,urn:ioos:station:wmo:lopl1:1,2019-07-05T12:51:00Z,28.8850,-90.0250,10.0,3.1,350.0,4.6,'11111222,11111222,11111222' 
LOOP,urn:ioos:station:wmo:lopl1:1,2019-07-05T13:51:00Z,28.8850,-90.0250,10.0,4.1,10.0,4.6,'11111222,11111222,11111222' 
LOOP,urn:ioos:station:wmo:lopl1:1,2019-07-05T14:51:00Z,28.8850,-90.0250,10.0,3.1,20.0,4.6,'11111222,11111222,11111222' 
LOOP,urn:ioos:station:wmo:lopl1:1,2019-07-05T15:51:00Z,28.8850,-90.0250,10.0,3.6,20.0,4.6,'11111222,11111222,11111222' 
LOOP,urn:ioos:station:wmo:lopl1:1,2019-07-05T16:51:00Z,28.8850,-90.0250,10.0,4.1,20.0,5.1,'11111222,11111222,11111222' 
LOOP,urn:ioos:station:wmo:lopl1:1,2019-07-05T17:51:00Z,28.8850,-90.0250,10.0,3.6,10.0,4.6,'11111222,11111222,11111222' 
LOOP,urn:ioos:station:wmo:lopl1:1,2019-07-05T18:51:00Z,28.8850,-90.0250,10.0,3.1,40.0,4.6,'11111222,11111222,11111222' 
LOOP,urn:ioos:station:wmo:lopl1:1,2019-07-05T19:51:00Z,28.8850,-90.0250,10.0,3.1,90.0,4.1,'11111222,11111222,11111222' 
LOOP,urn:ioos:station:wmo:lopl1:1,2019-07-05T20:56:00Z,28.8850,-90.0250,10.0,2.1,50.0,2.6,'11111222,11111222,11111222' 
LOOP,urn:ioos:station:wmo:lopl1:1,2019-07-05T21:56:00Z,28.8850,-90.0250,10.0,2.1,10.0,3.1,'11111222,11111222,11111222' 
LOOP,urn:ioos:station:wmo:lopl1:1,2019-07-05T22:56:00Z,28.8850,-90.0250,10.0,1.0,350.0,2.1,'11111222,11111222,11111222' 
LOOP,urn:ioos:station:wmo:lopl1:1,2019-07-05T23:56:00Z,28.8850,-90.0250,10.0,0.5,90.0,1.0,'11111222,11111222,11111222' 
LOOP,urn:ioos:station:wmo:lopl1:1,2019-07-06T00:56:00Z,28.8850,-90.0250,10.0,0.5,180.0,1.0,'11111222,11111222,11111222' 
LOOP,urn:ioos:station:wmo:lopl1:1,2019-07-06T01:56:00Z,28.8850,-90.0250,10.0,0.0,-9999.0,1.0,'11111222,11111222,11111222' 
LOOP,urn:ioos:station:wmo:lopl1:1,2019-07-06T02:56:00Z,28.8850,-90.0250,10.0,1.0,164.0,1.5,'11111222,11111222,11111222' 
LOOP,urn:ioos:station:wmo:lopl1:1,2019-07-06T03:56:00Z,28.8850,-90.0250,10.0,0.5,-9999.0,1.0,'11111222,11111222,11111222' 
LOOP,urn:ioos:station:wmo:lopl1:1,2019-07-06T04:56:00Z,28.8850,-90.0250,10.0,1.0,323.0,1.5,'11111222,11111222,11111222' 
LOOP,urn:ioos:station:wmo:lopl1:1,2019-07-06T05:56:00Z,28.8850,-90.0250,10.0,1.0,290.0,1.5,'11111222,11111222,11111222' 
LOOP,urn:ioos:station:wmo:lopl1:1,2019-07-06T06:56:00Z,28.8850,-90.0250,10.0,1.5,320.0,2.1,'11111222,11111222,11111222' 
LOOP,urn:ioos:station:wmo:lopl1:1,2019-07-06T07:56:00Z,28.8850,-90.0250,10.0,2.1,290.0,2.6,'11111222,11111222,11111222' 
LOOP,urn:ioos:station:wmo:lopl1:1,2019-07-06T09:01:00Z,28.8850,-90.0250,10.0,2.6,280.0,3.6,'11111222,11111222,11111222' 
LOOP,urn:ioos:station:wmo:lopl1:1,2019-07-06T10:01:00Z,28.8850,-90.0250,10.0,2.1,320.0,3.1,'11111222,11111222,11111222' 
LOOP,urn:ioos:station:wmo:lopl1:1,2019-07-06T11:01:00Z,28.8850,-90.0250,10.0,3.6,310.0,5.1,'11111222,11111222,11111222' 
LOOP,urn:ioos:station:wmo:lopl1:1,2019-07-06T12:01:00Z,28.8850,-90.0250,10.0,4.1,340.0,6.2,'11111222,11111222,11111222' 
LOOP,urn:ioos:station:wmo:lopl1:1,2019-07-06T13:01:00Z,28.8850,-90.0250,10.0,3.1,330.0,5.1,'11111222,11111222,11111222' 
LOOP,urn:ioos:station:wmo:lopl1:1,2019-07-06T14:01:00Z,28.8850,-90.0250,10.0,2.6,330.0,3.6,'11111222,11111222,11111222' 
LOOP,urn:ioos:station:wmo:lopl1:1,2019-07-06T15:01:00Z,28.8850,-90.0250,10.0,3.1,340.0,5.1,'11111222,11111222,11111222' 
LOOP,urn:ioos:station:wmo:lopl1:1,2019-07-06T16:01:00Z,28.8850,-90.0250,10.0,3.1,340.0,5.7,'11111222,11111222,11111222' 
LOOP,urn:ioos:station:wmo:lopl1:1,2019-07-06T17:06:00Z,28.8850,-90.0250,10.0,3.1,350.0,4.6,'11111222,11111222,11111222' 
LOOP,urn:ioos:station:wmo:lopl1:1,2019-07-06T18:06:00Z,28.8850,-90.0250,10.0,4.1,10.0,5.1,'11111222,11111222,11111222' 
LOOP,urn:ioos:station:wmo:lopl1:1,2019-07-06T19:06:00Z,28.8850,-90.0250,10.0,2.6,10.0,3.6,'11111222,11111222,11111222' 
LOOP,urn:ioos:station:wmo:lopl1:1,2019-07-06T20:06:00Z,28.8850,-90.0250,10.0,2.6,20.0,3.6,'11111222,11111222,11111222' 
LOOP,urn:ioos:station:wmo:lopl1:1,2019-07-06T21:06:00Z,28.8850,-90.0250,10.0,2.6,70.0,3.6,'11111222,11111222,11111222' 
LOOP,urn:ioos:station:wmo:lopl1:1,2019-07-06T22:06:00Z,28.8850,-90.0250,10.0,3.1,120.0,3.6,'11111222,11111222,11111222' 
LOOP,urn:ioos:station:wmo:lopl1:1,2019-07-06T23:06:00Z,28.8850,-90.0250,10.0,2.1,130.0,3.1,'11111222,11111222,11111222' 
LOOP,urn:ioos:station:wmo:lopl1:1,2019-07-07T00:06:00Z,28.8850,-90.0250,10.0,3.1,180.0,4.6,'11111222,11111222,11111222' 
LOOP,urn:ioos:station:wmo:lopl1:1,2019-07-07T01:06:00Z,28.8850,-90.0250,10.0,3.1,-9999.0,4.6,'11111222,11111222,11111222' 
LOOP,urn:ioos:station:wmo:lopl1:1,2019-07-07T02:06:00Z,28.8850,-90.0250,10.0,3.1,-9999.0,4.1,'11111222,11111222,11111222' 
LOOP,urn:ioos:station:wmo:lopl1:1,2019-07-07T03:11:00Z,28.8850,-90.0250,10.0,3.1,-9999.0,4.6,'11111222,11111222,11111222' 
LOOP,urn:ioos:station:wmo:lopl1:1,2019-07-07T04:11:00Z,28.8850,-90.0250,10.0,2.6,270.0,4.1,'11111222,11111222,11111222' 
LOOP,urn:ioos:station:wmo:lopl1:1,2019-07-07T05:11:00Z,28.8850,-90.0250,10.0,2.6,-9999.0,4.1,'11111222,11111222,11111222' 
LOOP,urn:ioos:station:wmo:lopl1:1,2019-07-07T06:11:00Z,28.8850,-90.0250,10.0,2.6,-9999.0,5.1,'11111222,11111222,11111222' 
LOOP,urn:ioos:station:wmo:lopl1:1,2019-07-07T07:11:00Z,28.8850,-90.0250,10.0,2.6,270.0,4.6,'11111222,11111222,11111222' 
LOOP,urn:ioos:station:wmo:lopl1:1,2019-07-07T08:11:00Z,28.8850,-90.0250,10.0,2.6,270.0,4.6,'11111222,11111222,11111222' 
LOOP,urn:ioos:station:wmo:lopl1:1,2019-07-07T09:16:00Z,28.8850,-90.0250,10.0,3.0,290.0,4.8,'11111222,11111222,11111222' 
LOOP,urn:ioos:station:wmo:lopl1:1,2019-07-07T09:26:00Z,28.8850,-90.0250,10.0,3.6,280.0,5.1,'11111222,11111222,11111222' 
LOOP,urn:ioos:station:wmo:lopl1:1,2019-07-07T10:26:00Z,28.8850,-90.0250,10.0,3.6,290.0,5.1,'11111222,11111222,11111222' 
LOOP,urn:ioos:station:wmo:lopl1:1,2019-07-07T11:26:00Z,28.8850,-90.0250,10.0,3.6,290.0,4.6,'11111222,11111222,11111222' 
LOOP,urn:ioos:station:wmo:lopl1:1,2019-07-07T12:26:00Z,28.8850,-90.0250,10.0,3.6,320.0,5.7,'11111222,11111222,11111222' 
LOOP,urn:ioos:station:wmo:lopl1:1,2019-07-07T13:26:00Z,28.8850,-90.0250,10.0,5.1,340.0,7.7,'11111222,11111222,11111222' 
LOOP,urn:ioos:station:wmo:lopl1:1,2019-07-07T14:31:00Z,28.8850,-90.0250,10.0,5.7,340.0,8.8,'11111222,11111222,11111222' 
LOOP,urn:ioos:station:wmo:lopl1:1,2019-07-07T15:31:00Z,28.8850,-90.0250,10.0,5.1,340.0,7.2,'11111222,11111222,11111222' 
LOOP,urn:ioos:station:wmo:lopl1:1,2019-07-07T16:31:00Z,28.8850,-90.0250,10.0,2.6,350.0,4.6,'11111222,11111222,11111222' 
LOOP,urn:ioos:station:wmo:lopl1:1,2019-07-07T17:31:00Z,28.8850,-90.0250,10.0,2.6,340.0,4.6,'11111222,11111222,11111222' 
LOOP,urn:ioos:station:wmo:lopl1:1,2019-07-07T18:31:00Z,28.8850,-90.0250,10.0,2.6,20.0,3.6,'11111222,11111222,11111222' 
LOOP,urn:ioos:station:wmo:lopl1:1,2019-07-07T19:31:00Z,28.8850,-90.0250,10.0,1.0,300.0,1.5,'11111222,11111222,11111222' 
LOOP,urn:ioos:station:wmo:lopl1:1,2019-07-07T20:31:00Z,28.8850,-90.0250,10.0,1.5,310.0,2.6,'11111222,11111222,11111222' 
LOOP,urn:ioos:station:wmo:lopl1:1,2019-07-07T21:31:00Z,28.8850,-90.0250,10.0,1.5,310.0,3.1,'11111222,11111222,11111222' 
LOOP,urn:ioos:station:wmo:lopl1:1,2019-07-07T22:31:00Z,28.8850,-90.0250,10.0,2.6,320.0,4.1,'11111222,11111222,11111222' 
LOOP,urn:ioos:station:wmo:lopl1:1,2019-07-07T23:31:00Z,28.8850,-90.0250,10.0,2.6,280.0,4.1,'11111222,11111222,11111222' 
LOOP,urn:ioos:station:wmo:lopl1:1,2019-07-08T00:36:00Z,28.8850,-90.0250,10.0,2.1,-9999.0,3.6,'11111222,11111222,11111222' 
LOOP,urn:ioos:station:wmo:lopl1:1,2019-07-08T01:36:00Z,28.8850,-90.0250,10.0,3.1,290.0,4.6,'11111222,11111222,11111222' 
LOOP,urn:ioos:station:wmo:lopl1:1,2019-07-08T02:36:00Z,28.8850,-90.0250,10.0,3.1,290.0,5.1,'11111222,11111222,11111222' 
LOOP,urn:ioos:station:wmo:lopl1:1,2019-07-08T03:36:00Z,28.8850,-90.0250,10.0,2.6,-9999.0,4.6,'11111222,11111222,11111222' 
LOOP,urn:ioos:station:wmo:lopl1:1,2019-07-08T04:36:00Z,28.8850,-90.0250,10.0,4.6,-9999.0,6.7,'11111222,11111222,11111222' 
LOOP,urn:ioos:station:wmo:lopl1:1,2019-07-08T05:36:00Z,28.8850,-90.0250,10.0,5.1,-9999.0,7.7,'11111222,11111222,11111222' 
LOOP,urn:ioos:station:wmo:lopl1:1,2019-07-08T06:36:00Z,28.8850,-90.0250,10.0,5.1,-9999.0,8.2,'11111222,11111222,11111222' 
LOOP,urn:ioos:station:wmo:lopl1:1,2019-07-08T07:36:00Z,28.8850,-90.0250,10.0,3.1,300.0,5.7,'11111222,11111222,11111222' 
LOOP,urn:ioos:station:wmo:lopl1:1,2019-07-08T08:36:00Z,28.8850,-90.0250,10.0,4.1,280.0,6.7,'11111222,11111222,11111222' 
LOOP,urn:ioos:station:wmo:lopl1:1,2019-07-08T09:56:00Z,28.8850,-90.0250,10.0,4.1,290.0,7.2,'11111222,11111222,11111222' 
LOOP,urn:ioos:station:wmo:lopl1:1,2019-07-08T10:56:00Z,28.8850,-90.0250,10.0,5.1,300.0,7.2,'11111222,11111222,11111222' 
LOOP,urn:ioos:station:wmo:lopl1:1,2019-07-08T11:56:00Z,28.8850,-90.0250,10.0,4.6,300.0,6.7,'11111222,11111222,11111222' 
LOOP,urn:ioos:station:wmo:lopl1:1,2019-07-08T12:56:00Z,28.8850,-90.0250,10.0,3.6,300.0,5.7,'11111222,11111222,11111222' 
LOOP,urn:ioos:station:wmo:lopl1:1,2019-07-08T13:56:00Z,28.8850,-90.0250,10.0,3.6,310.0,5.1,'11111222,11111222,11111222' 
LOOP,urn:ioos:station:wmo:lopl1:1,2019-07-08T14:56:00Z,28.8850,-90.0250,10.0,3.6,10.0,4.6,'11111222,11111222,11111222' 
LOOP,urn:ioos:station:wmo:lopl1:1,2019-07-08T15:56:00Z,28.8850,-90.0250,10.0,3.6,300.0,5.1,'11111222,11111222,11111222' 
LOOP,urn:ioos:station:wmo:lopl1:1,2019-07-08T16:57:00Z,28.8850,-90.0250,10.0,2.0,301.0,2.9,'11111222,11111222,11111222' 
LOOP,urn:ioos:station:wmo:lopl1:1,2019-07-08T17:57:00Z,28.8850,-90.0250,10.0,1.5,290.0,2.6,'11111222,11111222,11111222' 
LOOP,urn:ioos:station:wmo:lopl1:1,2019-07-08T19:02:00Z,28.8850,-90.0250,10.0,2.6,310.0,4.1,'11111222,11111222,11111222' 
LOOP,urn:ioos:station:wmo:lopl1:1,2019-07-08T20:02:00Z,28.8850,-90.0250,10.0,2.1,320.0,3.6,'11111222,11111222,11111222' 
LOOP,urn:ioos:station:wmo:lopl1:1,2019-07-08T21:02:00Z,28.8850,-90.0250,10.0,1.5,300.0,3.1,'11111222,11111222,11111222' 
LOOP,urn:ioos:station:wmo:lopl1:1,2019-07-08T22:02:00Z,28.8850,-90.0250,10.0,2.1,270.0,3.6,'11111222,11111222,11111222' 
LOOP,urn:ioos:station:wmo:lopl1:1,2019-07-08T23:02:00Z,28.8850,-90.0250,10.0,3.1,-9999.0,5.7,'11111222,11111222,11111222' 
LOOP,urn:ioos:station:wmo:lopl1:1,2019-07-09T00:02:00Z,28.8850,-90.0250,10.0,2.6,-9999.0,5.1,'11111222,11111222,11111222' 
LOOP,urn:ioos:station:wmo:lopl1:1,2019-07-09T01:02:00Z,28.8850,-90.0250,10.0,3.1,290.0,5.7,'11111222,11111222,11111222' 
LOOP,urn:ioos:station:wmo:lopl1:1,2019-07-09T02:02:00Z,28.8850,-90.0250,10.0,2.6,280.0,5.1,'11111222,11111222,11111222' 
LOOP,urn:ioos:station:wmo:lopl1:1,2019-07-09T03:02:00Z,28.8850,-90.0250,10.0,3.6,290.0,6.2,'11111222,11111222,11111222' 
LOOP,urn:ioos:station:wmo:lopl1:1,2019-07-09T04:02:00Z,28.8850,-90.0250,10.0,4.6,290.0,6.2,'11111222,11111222,11111222' 
LOOP,urn:ioos:station:wmo:lopl1:1,2019-07-09T05:07:00Z,28.8850,-90.0250,10.0,4.1,280.0,5.7,'11111222,11111222,11111222' 